Tracking 20621 objects as of 30-Mar-2020
HD Live streaming from Space Station
objects crossing your sky now

PEGASUS DEB


PEGASUS DEB is no longer on orbit


NORAD ID: 40240
Int'l Code: 1994-029AGG
Perigee: N/A
Apogee: N/A
Inclination: N/A
Period: N/A
Semi major axis: N/A
RCS: N/A
Launch date: May 19, 1994
Source: United States (US)
Launch site: AIR FORCE WESTERN TEST RANGE (AFWTR)
Decay date: 2015-02-28

Note: This is SATELLITE DEBRIS
aabbcc
Your satellite tracking list
Your tracking list is empty




NASA's NSSDC Master Catalog

Two Line Element Set (TLE):
1 40240U 94029AGG 15049.19307885  .00672031  00000-0  29472-2 0  9999
2 40240 081.5328 224.5460 0020073 261.6435 086.5727 15.82697117557066
Source of the keplerian elements: AFSPC